Weather History for Wooster, OH

Change the Weather History Date:

Tuesday, September 17, 2013

  Actual Average Record
Temperature  
Mean Temperature 54 °F -  
Max Temperature 69 °F 71 °F 77 °F (1998)
Min Temperature 39 °F 47 °F 37 °F (2007)
Degree Days  
Heating Degree Days 12    
Growing Degree Days 4 (Base 50)    
Moisture  
Dew Point 44 °F    
Average Humidity 87    
Maximum Humidity 100    
Minimum Humidity 45    
Precipitation  
Precipitation 0.01 in - - ()
Sea Level Pressure  
Sea Level Pressure 30.36 in    
Wind  
Wind Speed 2 mph (ESE)    
Max Wind Speed 9 mph    
Max Gust Speed -    
Visibility 5 miles    
Events Fog    
Averages and records for this station are not official NWS values.
T = Trace of Precipitation, MM = Missing Value Source: NWS Daily Summary

Daily Weather History Graph

Daily Weather History Graph

Search for Another Location

Airport:

Trip Planner

Search our weather history database for the weather conditions in past years. The results will help you decide how hot, cold, wet, or windy it might be!

Date:

Astronomy

Sep. 17, 2013 Rise Set
Actual Time 7:10 AM EDT 7:32 PM EDT
Civil Twilight 6:42 AM EDT 8:00 PM EDT
Nautical Twilight 6:10 AM EDT 8:32 PM EDT
Astronomical Twilight 5:37 AM EDT 9:05 PM EDT
Moon 6:19 PM EDT (9/17) 5:02 AM EDT (9/17)
Length of Visible Light 13h 17m
Length of Day
12h 22m
Waxing Gibbous, 96% of the Moon is Illuminated
Sep 17
Waxing Gibbous
Sep 19
Full
Sep 26
Last Quarter
Oct 4
New
Oct 11
First Quarter

Hourly Weather History & Observations

Time (EDT) Temp. Windchill Dew Point Humidity Pressure Visibility Wind Dir Wind Speed Gust Speed Precip Events Conditions
12:56 AM 44.1 °F - 43.0 °F 96% 30.36 in 10.0 mi Calm Calm - N/A   Scattered Clouds
1:56 AM 43.0 °F - 42.1 °F 97% 30.37 in 10.0 mi Calm Calm - N/A   Partly Cloudy
2:52 AM 42.8 °F - 41.0 °F 93% 30.36 in 1.8 mi Calm Calm - N/A   Clear
2:56 AM 41.0 °F - 41.0 °F 100% 30.37 in 1.8 mi Calm Calm - N/A   Clear
3:21 AM 42.8 °F - 42.8 °F 100% 30.36 in 3.0 mi Calm Calm - N/A   Clear
3:52 AM 42.8 °F - 42.8 °F 100% 30.37 in 1.8 mi Calm Calm - N/A   Clear
3:56 AM 41.0 °F - 41.0 °F 100% 30.38 in 0.8 mi Calm Calm - N/A   Clear
4:16 AM 42.8 °F - 39.2 °F 87% 30.37 in 1.2 mi Calm Calm - N/A   Clear
4:20 AM 44.6 °F - 42.8 °F 93% 30.37 in 3.0 mi Calm Calm - N/A   Clear
4:26 AM 41.0 °F - 41.0 °F 100% 30.37 in 1.5 mi Calm Calm - N/A   Clear
4:28 AM 39.2 °F - 39.2 °F 100% 30.37 in 0.8 mi Calm Calm - N/A   Clear
4:53 AM 39.2 °F - 37.4 °F 93% 30.38 in 0.5 mi Calm Calm - N/A Fog Fog
4:56 AM 39.0 °F - 37.9 °F 96% 30.39 in 0.5 mi Calm Calm - N/A Fog Fog
5:24 AM 39.2 °F - 39.2 °F 100% 30.38 in 0.2 mi Calm Calm - N/A Fog Fog
5:54 AM 39.2 °F - 37.4 °F 93% 30.38 in 0.5 mi Calm Calm - N/A Fog Fog
5:56 AM 39.0 °F - 37.9 °F 96% 30.39 in 0.5 mi Calm Calm - N/A Fog Fog
6:56 AM 42.1 °F - 41.0 °F 96% 30.40 in 0.2 mi Calm Calm - N/A Fog Fog
7:56 AM 43.0 °F - 42.1 °F 97% 30.41 in 0.2 mi Calm Calm - N/A Fog Fog
8:26 AM 44.6 °F 41.4 °F 44.6 °F 100% 30.40 in 1.5 mi East 5.8 mph - N/A   Overcast
8:33 AM 44.6 °F 42.2 °F 44.6 °F 100% 30.40 in 2.5 mi ESE 4.6 mph - N/A   Overcast
8:47 AM 44.6 °F 40.2 °F 44.6 °F 100% 30.40 in 3.0 mi ESE 8.1 mph - N/A   Overcast
8:56 AM 45.0 °F 41.8 °F 44.1 °F 97% 30.42 in 1.5 mi East 5.8 mph - N/A   Overcast
9:01 AM 44.6 °F 40.7 °F 44.6 °F 100% 30.40 in 0.8 mi East 6.9 mph - N/A   Overcast
9:33 AM 46.4 °F 43.5 °F 44.6 °F 93% 30.40 in 1.0 mi ESE 5.8 mph - N/A   Overcast
9:44 AM 46.4 °F 43.5 °F 46.4 °F 100% 30.40 in 1.5 mi SSE 5.8 mph - N/A   Overcast
9:56 AM 46.9 °F - 46.0 °F 97% 30.41 in 1.0 mi ESE 5.8 mph - N/A   Overcast
10:11 AM 48.2 °F - 46.4 °F 93% 30.40 in 1.8 mi ESE 4.6 mph - N/A   Overcast
10:18 AM 48.2 °F - 48.2 °F 100% 30.40 in 2.5 mi Variable 4.6 mph - N/A   Overcast
10:35 AM 48.2 °F - 48.2 °F 100% 30.40 in 3.0 mi Variable 4.6 mph - N/A   Overcast
10:56 AM 50.0 °F - 48.0 °F 93% 30.41 in 4.0 mi East 4.6 mph - N/A   Overcast
11:08 AM 51.8 °F - 48.2 °F 88% 30.40 in 5.0 mi East 4.6 mph - N/A   Mostly Cloudy
11:21 AM 55.4 °F - 48.2 °F 77% 30.39 in 8.0 mi Variable 4.6 mph - N/A   Mostly Cloudy
11:33 AM 57.2 °F - 48.2 °F 72% 30.38 in 10.0 mi SE 6.9 mph - N/A   Scattered Clouds
11:56 AM 59.0 °F - 48.9 °F 69% 30.39 in 10.0 mi East 4.6 mph - N/A   Clear
12:56 PM 64.0 °F - 48.0 °F 56% 30.37 in 10.0 mi Variable 5.8 mph - N/A   Clear
1:56 PM 64.9 °F - 46.9 °F 52% 30.35 in 10.0 mi Calm Calm - N/A   Clear
2:56 PM 66.9 °F - 46.0 °F 47% 30.33 in 10.0 mi ESE 6.9 mph - 0.01 in   Clear
3:56 PM 68.0 °F - 46.0 °F 45% 30.31 in 10.0 mi SE 9.2 mph - N/A   Clear
4:56 PM 68.0 °F - 46.0 °F 45% 30.29 in 10.0 mi Calm Calm - N/A   Clear
5:56 PM 68.0 °F - 48.0 °F 49% 30.28 in 10.0 mi SE 6.9 mph - N/A   Clear
6:56 PM 64.0 °F - 48.9 °F 58% 30.27 in 10.0 mi ESE 3.5 mph - N/A   Clear
7:56 PM 55.0 °F - 50.0 °F 83% 30.27 in 8.0 mi Calm Calm - N/A   Clear
8:56 PM 51.1 °F - 48.9 °F 92% 30.27 in 10.0 mi Calm Calm - 0.00 in   Clear
9:56 PM 50.0 °F - 46.9 °F 89% 30.27 in 10.0 mi Calm Calm - N/A   Clear
10:56 PM 48.0 °F - 46.0 °F 93% 30.27 in 10.0 mi Calm Calm - N/A   Clear
11:56 PM 46.9 °F - 45.0 °F 93% 30.27 in 10.0 mi Calm Calm - N/A   Clear